FREGAT DEB, 45840

Orbit data source: Space-Track

FREGAT DEB, 45840 is space debris in LEO originally from a launch on Mon, 18 Jul 2011 UTC launched from the Tyuratam Missile And Space Complex (TTMTR). Debris objects in space refer to the collection of defunct objects orbiting the Earth. Examples of debris include non-operational satellites, rocket bodies, and fragments generated from explosions, collisions, or faulty payload assembly.

Loading next visibility...
Identifier
45840, 2011-037CA
Orbit
LEO
Country
Flag of CISCIS
Related business
Manufacturer
Lavochkin
Mission
Spacecraft
Bus & Motor
Unknown
Mass
Unknown
Launch date (UTC)
2011-07-18 (15 years ago)
Launch vehicle
Unknown
Launch site
Tyuratam Missile And Space Complex (TTMTR)
Object type
Payload
Rocket body
Debris
Shape & HBR
Unknown shape, 0.1 m
Radar Cross Section
Medium (>0.1 m² and <1 m²)

Expand to show TLE details & history
Last TLE update: 3 days ago

TLE from 3 days ago
0 FREGAT DEB
1 45840U 11037CA  26170.89472505  .00006959  00000-0  23979-2 0  9990
2 45840  51.5388 355.0565 1873447 231.1049 110.7507 11.20666956236909
Epoch: 2026-06-19T21:28Z
TLE epoch observation values (Epoch: 2026-06-19T21:28:24.244Z)
Latitude
-0.00002°
Longitude
124.83832°
Altitude
2,848.428 km
Speed
6.259 km/s
True Right ascension
23h 40m 13s
True Declination
0° 00' 00"
Sunlit
Object was in daylight at epoch
Visualization orbit readout
Latitude
Unknown
Longitude
Unknown
Altitude
Unknown
Speed
Unknown
Apparent Right ascension
Unknown
Apparent Declination
Unknown
Sunlit
N/A
Visualization observer readout
Local Sidereal Time
21:34:45
Azimuth
Unknown
Elevation
Unknown
Doppler factor
Unknown
Orbital elements
Apogee altitude
3,637.625 km
Perigee altitude
476.959 km
Semi-major axis
8,435.429 km
Eccentricity
0.18734
Inclination
51.5388°
RAAN
355.0565°
Arg. of periapsis
231.1049°
True anomaly
128.97595°
Mean anomaly
110.7507°
Eccentric anomaly
120.04267°
Mean motion
2.80145 °/min
Orbital period
128.51 mins
BSTAR
0.0023979
Loading maneuver chart data...
Computing Atmospheric mass density...
Loading historical data...
Loading historical data...
Loading historical data...
Loading historical data...
Loading historical data...
Loading historical data...
Loading historical data...

Documentation

Showing up to 5 results
|